Overview Statistics Trail Chart Weather Telemetry Raw packets
 

This is the latest recevied weather packets stored in our database for station/object WX5KDM. If no packets are shown the sender has not sent any weather packets the latest 10 day(s).

<< 1 2 3 4 5 >>
Time Temp. Humidity Pressure Rain* Wind** Luminosity Snow
1788627166 36.11° C 52% 1014.5 hPa 0 mm - - -
1788626865 36.67° C 51% 1014.7 hPa 0 mm - - -
1788626560 36.67° C 52% 1014.6 hPa 0 mm - - -
1788626256 35.56° C 54% 1014.8 hPa 0 mm - - -
1788625973 35.56° C 52% 1014.7 hPa 0 mm - - -
1788625648 35.56° C 54% 1015 hPa 0 mm - - -
1788625347 35° C 53% 1015 hPa 0 mm - - -
1788625042 35° C 56% 1015 hPa 0 mm - - -
1788624741 34.44° C 56% 1015.1 hPa 0 mm - - -
1788624440 34.44° C 58% 1015.1 hPa 0 mm - - -
1788624140 35° C 56% 1015.4 hPa 0 mm - - -
1788623834 35° C 58% 1015.1 hPa 0 mm - - -
1788623533 34.44° C 62% 1015.1 hPa 0 mm - - -
1788623227 33.89° C 60% 1015.2 hPa 0 mm - - -
1788622923 34.44° C 62% 1015.3 hPa 0 mm - - -
1788622614 33.89° C 64% 1015.4 hPa 0 mm - - -
1788622309 33.33° C 63% 1015.3 hPa 0 mm - - -
1788622003 32.78° C 65% 1015.1 hPa 0 mm - - -
1788621698 32.78° C 65% 1015.3 hPa 0 mm - - -
1788621392 32.78° C 67% 1015.3 hPa 0 mm - - -
1788621088 32.78° C 65% 1015.3 hPa 0 mm - - -
1788620783 32.78° C 67% 1015.3 hPa 0 mm - - -
1788620481 32.78° C 67% 1015.3 hPa 0 mm - - -
1788620180 32.78° C 66% 1015.2 hPa 0 mm - - -
1788619879 32.78° C 67% 1015.2 hPa 0 mm - - -

* Rain latest hour (hover to see other rain measurements)
** Current wind speed in m/s (hover to see current wind gust speed)